FW5145 Weather Reports


Display with metric or nautical units.
time (UTC)temp
F
wind
direction
speed
MPH
gust
MPH
rain 1hr
in
rain 24hr
in
rain mn
in
humidity
%
barometer
mb
20260508202536 52 0 0.0 0.0 0.00 0.00 0.00 100 1018.2
20260508202032 53 0 0.0 0.0 0.00 0.00 0.00 100 1018.2
20260508201543 53 0 0.0 0.0 0.00 0.00 0.00 100 1018.1
20260508201032 53 0 0.0 0.0 0.00 0.00 0.00 100 1018.1
20260508200532 53 0 0.0 0.0 0.00 0.00 0.00 100 1018.0
20260508200047 54 0 0.0 0.0 0.00 0.00 0.00 100 1017.9
20260508195533 54 0 0.0 0.0 0.00 0.00 0.00 100 1017.9
20260508195036 54 0 0.0 0.0 0.00 0.00 0.00 100 1017.8
20260508194544 54 0 0.0 0.0 0.00 0.00 0.00 100 1017.9
20260508194031 55 0 0.0 0.0 0.00 0.00 0.00 100 1017.8
20260508193531 55 0 0.0 0.0 0.00 0.00 0.00 100 1017.7
20260508193044 55 0 0.0 0.0 0.00 0.00 0.00 100 1017.7
20260508192533 56 0 0.0 0.0 0.00 0.00 0.00 100 1017.7
20260508192034 56 0 0.0 0.0 0.00 0.00 0.00 100 1017.6
20260508191550 57 0 0.0 0.0 0.00 0.00 0.00 100 1017.5
20260508191032 58 0 0.0 0.0 0.00 0.00 0.00 100 1017.5
20260508190532 58 0 0.0 0.0 0.00 0.00 0.00 100 1017.5
20260508190042 59 0 0.0 0.0 0.00 0.00 0.00 100 1017.4
20260508185533 59 0 0.0 0.0 0.00 0.00 0.00 100 1017.4
20260508185033 60 0 0.0 0.0 0.00 0.00 0.00 100 1017.3
20260508184544 60 0 0.0 0.0 0.00 0.00 0.00 100 1017.3
20260508184038 61 0 0.0 0.0 0.00 0.00 0.00 100 1017.3
20260508183532 61 0 0.0 0.0 0.00 0.00 0.00 100 1017.3
20260508183036 61 0 0.0 0.0 0.00 0.00 0.00 100 1017.3
20260508182533 62 0 0.0 0.0 0.00 0.00 0.00 100 1017.1
20260508182034 62 0 0.0 0.0 0.00 0.00 0.00 100 1017.2
20260508181544 62 0 0.0 0.0 0.00 0.00 0.00 100 1017.0
20260508181032 62 0 0.0 0.0 0.00 0.00 0.00 100 1017.0
20260508180532 62 0 0.0 1.0 0.00 0.00 0.00 100 1017.0
20260508180043 62 0 0.0 2.0 0.00 0.00 0.00 100 1017.0
20260508175532 62 0 0.0 2.0 0.00 0.00 0.00 100 1016.8
20260508175037 62 0 0.0 2.0 0.00 0.00 0.00 100 1017.0
20260508174603 62 0 0.0 3.0 0.00 0.00 0.00 100 1016.8
20260508174032 62 360 0.0 3.0 0.00 0.00 0.00 100 1016.9
20260508173532 62 352 0.0 3.0 0.00 0.00 0.00 100 1017.0
20260508173050 62 0 0.0 2.0 0.00 0.00 0.00 100 1017.0
20260508172536 62 0 0.0 2.0 0.00 0.00 0.00 100 1016.9
20260508172032 63 0 0.0 1.0 0.00 0.00 0.00 100 1016.8
20260508171545 63 0 0.0 0.0 0.00 0.00 0.00 100 1016.8
20260508171031 63 0 0.0 0.0 0.00 0.00 0.00 100 1016.9
20260508170532 63 0 0.0 0.0 0.00 0.00 0.00 100 1016.8
20260508170050 63 0 0.0 0.0 0.00 0.00 0.00 100 1016.8
20260508165531 64 0 0.0 0.0 0.00 0.00 0.00 100 1016.8
20260508165032 64 0 0.0 2.0 0.00 0.00 0.00 100 1016.8
20260508164548 64 0 0.0 2.0 0.00 0.00 0.00 100 1016.7
20260508164033 64 0 0.0 2.0 0.00 0.00 0.00 100 1016.7
20260508163534 64 292 0.0 2.0 0.00 0.00 0.00 100 1016.7
20260508163042 64 40 0.0 2.0 0.00 0.00 0.00 100 1016.6
20260508162532 64 0 0.0 2.0 0.00 0.00 0.00 100 1016.6
20260508162031 64 0 0.0 0.0 0.00 0.00 0.00 100 1016.5
20260508161548 64 0 0.0 0.0 0.00 0.00 0.00 100 1016.5
20260508161032 64 0 0.0 0.0 0.00 0.00 0.00 100 1016.6
20260508160531 64 0 0.0 0.0 0.00 0.00 0.00 100 1016.6
20260508160049 64 0 0.0 0.0 0.00 0.00 0.00 100 1016.6
20260508155534 64 0 0.0 0.0 0.00 0.00 0.00 100 1016.7
20260508155032 64 0 0.0 0.0 0.00 0.00 0.00 100 1016.6
20260508154554 64 0 0.0 2.0 0.00 0.00 0.00 100 1016.6
20260508154032 64 0 0.0 3.0 0.00 0.00 0.00 100 1016.6
20260508153534 64 0 1.0 4.0 0.00 0.00 0.00 100 1016.5
20260508153043 64 29 1.0 4.0 0.00 0.00 0.00 100 1016.6
20260508152533 64 30 1.0 4.0 0.00 0.00 0.00 100 1016.7
20260508152032 64 0 0.0 6.0 0.00 0.00 0.00 100 1016.6
20260508151550 64 0 0.0 7.0 0.00 0.00 0.00 100 1016.6
20260508151032 64 38 1.0 7.0 0.00 0.00 0.00 100 1016.6
20260508150534 64 12 0.0 3.0 0.00 0.00 0.00 100 1016.6
20260508150047 63 0 0.0 2.0 0.00 0.00 0.00 100 1016.7
20260508145533 63 0 0.0 2.0 0.00 0.00 0.00 100 1016.6
20260508145033 63 0 0.0 3.0 0.00 0.00 0.00 100 1016.7
20260508144549 63 0 1.0 4.0 0.00 0.00 0.00 100 1016.7
20260508144032 64 12 0.0 4.0 0.00 0.00 0.00 100 1016.7
20260508143534 64 39 1.0 4.0 0.00 0.00 0.00 100 1016.7
20260508143052 64 28 0.0 3.0 0.00 0.00 0.00 100 1016.7
20260508142531 64 48 0.0 3.0 0.00 0.00 0.00 100 1016.7
20260508142035 64 0 0.0 3.0 0.00 0.00 0.00 100 1016.7
20260508141540 64 28 1.0 3.0 0.00 0.00 0.00 100 1016.7
20260508141032 65 0 0.0 2.0 0.00 0.00 0.00 100 1016.8
20260508140532 64 0 0.0 2.0 0.00 0.00 0.00 100 1016.8
20260508140055 64 0 0.0 2.0 0.00 0.00 0.00 100 1016.8
20260508135532 64 0 0.0 2.0 0.00 0.00 0.00 100 1016.8
20260508135035 65 18 0.0 4.0 0.00 0.00 0.00 100 1016.9
20260508134551 65 0 0.0 4.0 0.00 0.00 0.00 100 1016.8
20260508134033 65 0 1.0 4.0 0.00 0.00 0.00 100 1016.7
20260508133535 65 142 0.0 4.0 0.00 0.00 0.00 100 1016.8
20260508133056 64 26 1.0 4.0 0.00 0.00 0.00 100 1016.8
20260508132533 64 30 1.0 3.0 0.00 0.00 0.00 100 1016.9
20260508132034 64 51 0.0 3.0 0.00 0.00 0.00 100 1017.0
20260508131544 64 0 2.0 3.0 0.00 0.00 0.00 100 1016.9
20260508131032 63 20 1.0 3.0 0.00 0.00 0.00 100 1017.0
20260508130531 63 68 0.0 3.0 0.00 0.00 0.00 100 1017.0
20260508130059 63 12 0.0 2.0 0.00 0.00 0.00 100 1017.0
20260508125533 63 0 0.0 3.0 0.00 0.00 0.00 100 1017.1
20260508125032 63 0 0.0 3.0 0.00 0.00 0.00 100 1017.1
20260508124550 63 0 0.0 3.0 0.00 0.00 0.00 100 1017.0
20260508124032 62 360 0.0 3.0 0.00 0.00 0.00 100 1017.1
20260508123533 62 0 0.0 2.0 0.00 0.00 0.00 100 1017.0
20260508123051 62 0 0.0 3.0 0.00 0.00 0.00 100 1017.0
20260508122533 62 0 0.0 4.0 0.00 0.00 0.00 100 1017.1
20260508122035 63 0 1.0 4.0 0.00 0.00 0.00 100 1017.0
20260508121602 63 68 0.0 2.0 0.00 0.00 0.00 100 1017.1
20260508121033 63 229 0.0 3.0 0.00 0.00 0.00 100 1017.2
20260508120532 63 0 0.0 5.0 0.00 0.00 0.00 100 1017.2
20260508120048 62 15 1.0 5.0 0.00 0.00 0.00 100 1017.2
20260508115533 62 5 1.0 4.0 0.00 0.00 0.00 100 1017.2
20260508115032 62 68 0.0 3.0 0.00 0.00 0.00 100 1017.2
20260508114549 61 5 0.0 4.0 0.00 0.00 0.00 100 1017.3
20260508114033 61 63 1.0 4.0 0.00 0.00 0.00 100 1017.3
20260508113534 62 9 1.0 4.0 0.00 0.00 0.00 100 1017.2
20260508113054 62 327 0.0 3.0 0.00 0.00 0.00 100 1017.2
20260508112534 62 323 1.0 3.0 0.00 0.00 0.00 100 1017.2
20260508112032 62 21 1.0 4.0 0.00 0.00 0.00 100 1017.2
20260508111552 62 22 1.0 4.0 0.00 0.00 0.00 100 1017.2
20260508111034 62 0 1.0 6.0 0.00 0.00 0.00 100 1017.2
20260508110534 62 0 1.0 6.0 0.00 0.00 0.00 100 1017.2
20260508110043 62 0 0.0 3.0 0.00 0.00 0.00 100 1017.2
20260508105532 61 19 0.0 5.0 0.00 0.00 0.00 100 1017.1
20260508105037 61 28 1.0 5.0 0.00 0.00 0.00 100 1017.1
20260508104549 61 34 0.0 3.0 0.00 0.00 0.00 100 1017.2
20260508104033 60 0 0.0 3.0 0.00 0.00 0.00 100 1017.2
20260508103533 60 0 0.0 3.0 0.00 0.00 0.00 100 1017.2
20260508103049 60 0 0.0 2.0 0.00 0.00 0.00 100 1017.3
20260508102532 59 0 0.0 5.0 0.00 0.00 0.00 100 1017.3
20260508102033 59 0 0.0 5.0 0.00 0.00 0.00 100 1017.3
20260508101547 59 33 0.0 3.0 0.00 0.00 0.00 100 1017.4
20260508101032 59 344 0.0 4.0 0.00 0.00 0.00 100 1017.2
20260508100534 59 250 1.0 4.0 0.00 0.00 0.00 100 1017.2
20260508100042 58 0 0.0 2.0 0.00 0.00 0.00 100 1017.2
20260508095532 58 0 0.0 3.0 0.00 0.00 0.00 100 1017.3
20260508095034 58 26 0.0 3.0 0.00 0.00 0.00 100 1017.3
20260508094547 58 5 1.0 3.0 0.00 0.00 0.00 100 1017.2
20260508094032 57 32 0.0 3.0 0.00 0.00 0.00 100 1017.2
20260508093533 57 0 0.0 3.0 0.00 0.00 0.00 100 1017.2
20260508093052 57 26 0.0 3.0 0.00 0.00 0.00 100 1017.2
20260508092532 57 0 0.0 3.0 0.00 0.00 0.00 100 1017.1
20260508092032 57 5 0.0 3.0 0.00 0.00 0.00 100 1017.2
20260508091555 56 0 0.0 3.0 0.00 0.00 0.00 100 1017.2
20260508091033 56 24 0.0 3.0 0.00 0.00 0.00 100 1017.2
20260508090532 56 0 0.0 3.0 0.00 0.00 0.00 100 1017.3
20260508090055 56 41 0.0 3.0 0.00 0.00 0.00 100 1017.2
20260508085533 56 12 1.0 3.0 0.00 0.00 0.00 100 1017.3
20260508085034 56 0 0.0 3.0 0.00 0.00 0.00 100 1017.2
20260508084542 55 49 0.0 2.0 0.00 0.00 0.00 100 1017.2
20260508084033 55 0 0.0 3.0 0.00 0.00 0.00 100 1017.2
20260508083533 55 0 0.0 3.0 0.00 0.00 0.00 100 1017.2
20260508083041 54 0 1.0 4.0 0.00 0.00 0.00 100 1017.2
20260508082533 54 30 0.0 4.0 0.00 0.00 0.00 100 1017.2
20260508082032 54 351 0.0 4.0 0.00 0.00 0.00 100 1017.2
20260508081544 53 22 0.0 4.0 0.00 0.00 0.00 100 1017.1
20260508081033 53 0 1.0 4.0 0.00 0.00 0.00 100 1017.1
20260508080533 52 0 1.0 4.0 0.00 0.00 0.00 100 1017.1
20260508080050 51 0 0.0 0.0 0.00 0.00 0.00 100 1017.2
20260508075533 51 0 0.0 0.0 0.00 0.00 0.00 100 1017.1
20260508075033 51 0 0.0 0.0 0.00 0.00 0.00 100 1017.1
20260508074541 50 0 0.0 0.0 0.00 0.00 0.00 100 1017.0
20260508074032 49 0 0.0 0.0 0.00 0.00 0.00 100 1017.0
20260508073534 49 0 0.0 0.0 0.00 0.00 0.00 100 1017.1
20260508073048 49 0 0.0 0.0 0.00 0.00 0.00 100 1017.1
20260508072534 48 0 0.0 0.0 0.00 0.00 0.00 100 1017.0
20260508072032 48 0 0.0 0.0 0.00 0.00 0.00 100 1017.1
20260508071553 47 0 0.0 0.0 0.00 0.00 0.00 100 1017.1
20260508071033 47 0 0.0 0.0 0.00 0.00 0.00 100 1017.0
20260508070534 47 0 0.0 0.0 0.00 0.00 0.00 100 1017.0
20260508070058 46 0 0.0 0.0 0.00 0.00 0.00 100 1017.0
20260508065534 46 0 0.0 1.0 0.00 0.00 0.00 100 1016.9
20260508065032 46 0 0.0 1.0 0.00 0.00 0.00 100 1017.0
20260508064544 45 0 0.0 0.0 0.00 0.00 0.00 100 1016.9
20260508064036 45 0 0.0 0.0 0.00 0.00 0.00 100 1016.9
20260508063533 45 0 0.0 0.0 0.00 0.00 0.00 100 1016.8
20260508063041 45 0 0.0 0.0 0.00 0.00 0.00 100 1016.9
20260508062533 45 0 0.0 0.0 0.00 0.00 0.00 100 1016.9
20260508062032 44 0 0.0 0.0 0.00 0.00 0.00 100 1016.9
20260508061540 44 0 0.0 0.0 0.00 0.00 0.00 100 1016.8
20260508061032 44 0 0.0 0.0 0.00 0.00 0.00 100 1016.8
20260508060532 44 0 0.0 0.0 0.00 0.00 0.00 100 1016.7
20260508060043 44 0 0.0 0.0 0.00 0.00 0.00 100 1016.7
20260508055533 44 0 0.0 0.0 0.00 0.00 0.00 100 1016.7
20260508055032 44 0 0.0 0.0 0.00 0.00 0.00 100 1016.5
20260508054551 43 0 0.0 0.0 0.00 0.00 0.00 100 1016.5
20260508054033 43 0 0.0 0.0 0.00 0.00 0.00 100 1016.5
20260508053534 43 0 0.0 0.0 0.00 0.00 0.00 100 1016.5
20260508053050 43 0 0.0 0.0 0.00 0.00 0.00 100 1016.5
20260508052531 43 0 0.0 0.0 0.00 0.00 0.00 100 1016.4
20260508052033 43 0 0.0 0.0 0.00 0.00 0.00 100 1016.4
20260508051543 42 0 0.0 0.0 0.00 0.00 0.00 100 1016.4
20260508051033 42 0 0.0 0.0 0.00 0.00 0.00 100 1016.4
20260508050535 42 0 0.0 0.0 0.00 0.00 0.00 100 1016.4
20260508050046 42 0 0.0 0.0 0.00 0.00 0.00 100 1016.3
20260508045533 42 0 0.0 0.0 0.00 0.00 0.00 100 1016.3
20260508045033 42 0 0.0 0.0 0.00 0.00 0.00 100 1016.2
20260508044546 42 0 0.0 0.0 0.00 0.00 0.00 100 1016.3
20260508044033 42 0 0.0 0.0 0.00 0.00 0.00 100 1016.3
20260508043532 41 0 0.0 0.0 0.00 0.00 0.00 100 1016.2
20260508043036 41 0 0.0 0.0 0.00 0.00 0.00 100 1016.3
20260508042534 41 0 0.0 0.0 0.00 0.00 0.00 100 1016.2
20260508042031 41 0 0.0 0.0 0.00 0.00 0.00 100 1016.2
20260508041545 41 0 0.0 0.0 0.00 0.00 0.00 100 1016.2
20260508041033 41 0 0.0 0.0 0.00 0.00 0.00 100 1016.2
20260508040534 41 0 0.0 0.0 0.00 0.00 0.00 100 1016.2
20260508040043 42 0 0.0 0.0 0.00 0.00 0.00 100 1016.3
20260508035531 42 0 0.0 0.0 0.00 0.00 0.00 100 1016.3
20260508035032 42 0 0.0 0.0 0.00 0.00 0.00 100 1016.3
20260508034544 42 0 0.0 0.0 0.00 0.00 0.00 100 1016.3
20260508034032 42 0 0.0 0.0 0.00 0.00 0.00 100 1016.4
20260508033532 42 0 0.0 0.0 0.00 0.00 0.00 100 1016.4
20260508033050 42 0 0.0 0.0 0.00 0.00 0.00 100 1016.3
20260508032533 42 0 0.0 0.0 0.00 0.00 0.00 100 1016.3
20260508032032 42 0 0.0 0.0 0.00 0.00 0.00 100 1016.2
20260508031544 42 0 0.0 0.0 0.00 0.00 0.00 100 1016.2
20260508031034 42 0 0.0 0.0 0.00 0.00 0.00 100 1016.3
20260508030532 42 0 0.0 0.0 0.00 0.00 0.00 100 1016.2
20260508030047 42 0 0.0 0.0 0.00 0.00 0.00 100 1016.2
20260508025535 42 0 0.0 0.0 0.00 0.00 0.00 100 1016.2
20260508025032 42 0 0.0 0.0 0.00 0.00 0.00 100 1016.3
20260508024545 42 0 0.0 0.0 0.00 0.00 0.00 100 1016.3
20260508024033 42 0 0.0 0.0 0.00 0.00 0.00 100 1016.3
20260508023533 42 0 0.0 0.0 0.00 0.00 0.00 100 1016.4
20260508023043 42 0 0.0 0.0 0.00 0.00 0.00 100 1016.3
20260508022534 42 0 0.0 0.0 0.00 0.00 0.00 100 1016.3
20260508022032 42 0 0.0 0.0 0.00 0.00 0.00 100 1016.3
20260508021546 42 0 0.0 0.0 0.00 0.00 0.00 100 1016.3
20260508021032 42 0 0.0 0.0 0.00 0.00 0.00 100 1016.3
20260508020535 42 0 0.0 0.0 0.00 0.00 0.00 100 1016.3
20260508020046 42 0 0.0 0.0 0.00 0.00 0.00 100 1016.4
20260508015533 43 0 0.0 0.0 0.00 0.00 0.00 100 1016.3
20260508015035 43 0 0.0 0.0 0.00 0.00 0.00 100 1016.3
20260508014551 43 0 0.0 0.0 0.00 0.00 0.00 100 1016.3
20260508014034 43 0 0.0 0.0 0.00 0.00 0.00 100 1016.3
20260508013533 43 0 0.0 0.0 0.00 0.00 0.00 100 1016.4
20260508013042 43 0 0.0 0.0 0.00 0.00 0.00 100 1016.3
20260508012533 43 0 0.0 0.0 0.00 0.00 0.00 100 1016.3
20260508012031 43 0 0.0 0.0 0.00 0.00 0.00 100 1016.3
20260508011547 43 0 0.0 0.0 0.00 0.00 0.00 100 1016.3
20260508011033 43 0 0.0 0.0 0.00 0.00 0.00 100 1016.3
20260508010532 43 0 0.0 0.0 0.00 0.00 0.00 100 1016.4
20260508010055 43 0 0.0 0.0 0.00 0.00 0.00 100 1016.4
20260508005532 43 0 0.0 0.0 0.00 0.00 0.00 100 1016.3
20260508005032 43 0 0.0 0.0 0.00 0.00 0.00 100 1016.2
20260508004537 43 0 0.0 0.0 0.00 0.00 0.00 100 1016.4
20260508004035 43 0 0.0 0.0 0.00 0.00 0.00 100 1016.5
20260508003531 43 0 0.0 0.0 0.00 0.00 0.00 100 1016.4
20260508003044 43 0 0.0 0.0 0.00 0.00 0.00 100 1016.5
20260508002532 43 0 0.0 0.0 0.00 0.00 0.00 100 1016.4
20260508002034 44 0 0.0 0.0 0.00 0.00 0.00 100 1016.4
20260508001550 44 0 0.0 0.0 0.00 0.00 0.00 100 1016.2
20260508001032 44 0 0.0 0.0 0.00 0.00 0.00 100 1016.2
20260508000533 44 0 0.0 0.0 0.00 0.00 0.00 100 1016.3
20260508000053 44 0 0.0 0.0 0.00 0.00 0.00 100 1016.4
20260507235534 44 0 0.0 0.0 0.00 0.00 0.00 100 1016.5
20260507235034 44 0 0.0 0.0 0.00 0.00 0.00 100 1016.5
20260507234545 44 0 0.0 0.0 0.00 0.00 0.00 100 1016.5
20260507234032 44 0 0.0 0.0 0.00 0.00 0.00 100 1016.6
20260507233533 44 0 0.0 0.0 0.00 0.00 0.00 100 1016.6
20260507233044 44 0 0.0 0.0 0.00 0.00 0.00 100 1016.8
20260507232533 44 0 0.0 0.0 0.00 0.00 0.00 100 1016.8
20260507232030 45 0 0.0 0.0 0.00 0.00 0.00 100 1016.8
20260507231543 45 0 0.0 0.0 0.00 0.00 0.00 100 1016.9
20260507231059 45 0 0.0 0.0 0.00 0.00 0.00 100 1017.0
20260507230533 45 0 0.0 0.0 0.00 0.00 0.00 100 1017.0
20260507230043 45 0 0.0 0.0 0.00 0.00 0.00 100 1017.0
20260507225531 45 0 0.0 0.0 0.00 0.00 0.00 100 1017.0
20260507225033 45 0 0.0 0.0 0.00 0.00 0.00 100 1016.9
20260507224542 45 0 0.0 0.0 0.00 0.00 0.00 100 1016.9
20260507224032 45 0 0.0 0.0 0.00 0.00 0.00 100 1017.0
20260507223533 45 0 0.0 0.0 0.00 0.00 0.00 100 1017.1
20260507223040 46 0 0.0 0.0 0.00 0.00 0.00 100 1017.3
20260507222533 46 0 0.0 0.0 0.00 0.00 0.00 100 1017.3
20260507222032 46 0 0.0 0.0 0.00 0.00 0.00 100 1017.2
20260507221535 46 0 0.0 0.0 0.00 0.00 0.00 100 1017.4
20260507221036 46 0 0.0 0.0 0.00 0.00 0.00 100 1017.2
20260507220532 47 0 0.0 0.0 0.00 0.00 0.00 100 1017.3
20260507220044 47 0 0.0 0.0 0.00 0.00 0.00 100 1017.3
20260507215533 47 0 0.0 0.0 0.00 0.00 0.00 100 1017.2
20260507215033 47 0 0.0 0.0 0.00 0.00 0.00 100 1017.3
20260507214546 47 0 0.0 0.0 0.00 0.00 0.00 100 1017.2
20260507214032 47 0 0.0 1.0 0.00 0.00 0.00 100 1017.3
20260507213531 47 0 0.0 1.0 0.00 0.00 0.00 100 1017.1
20260507213050 47 0 0.0 1.0 0.00 0.00 0.00 100 1017.2
20260507212532 47 0 0.0 0.0 0.00 0.00 0.00 100 1017.2
20260507212036 47 0 0.0 0.0 0.00 0.00 0.00 100 1017.1
20260507211548 47 0 0.0 0.0 0.00 0.00 0.00 100 1017.1
20260507211034 47 0 0.0 0.0 0.00 0.00 0.00 100 1017.1
20260507210534 47 0 0.0 0.0 0.00 0.00 0.00 100 1017.2
20260507210045 47 0 0.0 0.0 0.00 0.00 0.00 100 1017.2
20260507205532 48 0 0.0 0.0 0.00 0.00 0.00 100 1017.2
20260507205034 48 0 0.0 0.0 0.00 0.00 0.00 100 1017.1
20260507204545 48 0 0.0 0.0 0.00 0.00 0.00 100 1017.1
20260507204033 48 0 0.0 0.0 0.00 0.00 0.00 100 1017.1
20260507203533 48 0 0.0 0.0 0.00 0.00 0.00 100 1017.0